Skip Page Navigation
NASA JPL Caltech
NASA Logo - Jet Propulsion Laboratory + View the NASA Portal
+ Center for Near-Earth Object Studies
JPL Home Earth Solar System Stars & Galaxies Technology
JPL Solar System Dynamics
BODIES ORBITS EPHEMERIDES TOOLS PHYSICAL DATA DISCOVERY FAQ SITE MAP
JPL Small-Body Database Browser
Search: [ help ]  
362522 (2010 TT112)
Classification: Main-belt Asteroid          SPK-ID: 2362522
Ephemeris | Orbit Diagram | Orbital Elements | Mission Design | Physical Parameters | Discovery Circumstances | Close-Approach Data ]

[ show orbit diagram ]
Orbital Elements at Epoch 2459200.5 (2020-Dec-17.0) TDB
Reference: JPL 12 (heliocentric ecliptic J2000)
 Element Value Uncertainty (1-sigma)   Units 
e .06510084234917078 7.1798e-08  
a 2.99678543245791 7.2759e-08 au
q 2.801692176465175 1.8927e-07 au
i 1.474715848705613 6.4126e-06 deg
node 258.8422070065345 0.00037497 deg
peri 25.31973900142728 0.00044036 deg
M 76.28367574582184 0.00021078 deg
tp 2458798.976460644348
(2019-Nov-11.47646064)
0.0011215 TDB
period 1894.880821549189
5.19
6.9009e-05
1.889e-07
d
yr
n .1899855631583608 6.919e-09 deg/d
Q 3.191878688450644 7.7496e-08 au
  Orbit Determination Parameters
   # obs. used (total)      115  
   data-arc span      5478 days (15.00 yr)  
   first obs. used      2005-10-12  
   last obs. used      2020-10-11  
   planetary ephem.      DE441  
   SB-pert. ephem.      SB441-N16  
   condition code      0  
   norm. resid. RMS      .59694  
   source      ORB  
   producer      Otto Matic  
   solution date      2021-Apr-14 09:39:47  

Additional Information
 Earth MOID = 1.78342 au 
 Jupiter MOID = 1.89857 au 
 T_jup = 3.250 
[ show covariance matrix ]

Ephemeris | Orbit Diagram | Orbital Elements | Mission Design | Physical Parameters | Discovery Circumstances | Close-Approach Data ]

Physical Parameter Table
Parameter Symbol Value Units Sigma Reference Notes
absolute magnitude H 16.8   n/a MPO476708  

362522 (2010 TT112)          Discovered 2005-Oct-12 by Spacewatch at Kitt Peak
Reference: Last Updated: 2013-04-29

[ show close-approach data ]
Ephemeris | Orbit Diagram | Orbital Elements | Mission Design | Physical Parameters | Discovery Circumstances | Close-Approach Data ]
ABOUT SSD CREDITS/AWARDS PRIVACY/COPYRIGHT GLOSSARY LINKS
FirstGov 2021-Jun-23 00:54 UT
(server date/time)  
NASA Home Page
Site Manager:   Ryan S. Park
Webmaster  Alan B. Chamberlin